DW7164 Weather Reports


time (UTC)temp
F
wind
direction
speed
knots
gust
knots
rain 1hr
in
rain 24hr
in
rain mn
in
humidity
%
barometer
mb
20260504044602 48 106 0.9 3.5 0.00 0.00 0.00 52 1014.3
20260504043051 49 106 0.9 3.5 0.00 0.00 0.00 51 1014.0
20260504041550 49 106 2.6 6.1 0.00 0.00 0.00 49 1013.8
20260504040047 50 106 2.6 6.1 0.00 0.00 0.00 48 1013.6
20260504034553 51 106 2.6 7.8 0.00 0.00 0.00 45 1013.4
20260504033053 52 106 3.5 8.7 0.00 0.00 0.00 43 1013.1
20260504031543 53 106 3.5 9.6 0.00 0.00 0.00 42 1012.9
20260504030040 53 106 5.2 8.7 0.00 0.00 0.00 42 1012.7
20260504024545 54 106 4.3 11.3 0.00 0.00 0.00 39 1012.6
20260504023039 54 106 5.2 10.4 0.00 0.00 0.00 38 1012.6
20260504021538 55 106 8.7 13.0 0.00 0.00 0.00 37 1012.5
20260504020037 56 106 9.6 14.8 0.00 0.00 0.00 35 1012.3
20260504014536 57 106 10.4 16.5 0.00 0.00 0.00 33 1012.1
20260504013037 58 106 10.4 15.6 0.00 0.00 0.00 33 1012.0
20260504011533 59 106 6.1 13.9 0.00 0.00 0.00 34 1011.9
20260504010043 59 106 6.1 14.8 0.00 0.00 0.00 33 1011.9
20260504004532 60 106 7.0 15.6 0.00 0.00 0.00 30 1012.0
20260504003031 60 106 8.7 16.5 0.00 0.00 0.00 29 1011.9
20260504001531 60 106 10.4 24.3 0.00 0.00 0.00 30 1011.9
20260504000029 61 106 9.6 19.1 0.00 0.00 0.00 29 1011.9
20260503234528 61 106 12.2 19.1 0.00 0.00 0.00 29 1011.7
20260503233027 61 106 10.4 18.2 0.00 0.00 0.00 30 1011.6
20260503231527 60 106 11.3 23.5 0.00 0.00 0.00 30 1011.4
20260503230025 60 106 12.2 22.6 0.00 0.00 0.00 29 1011.3
20260503224524 60 106 16.5 27.8 0.00 0.00 0.00 28 1011.2
20260503223023 61 106 14.8 23.5 0.00 0.00 0.00 29 1011.0
20260503221530 61 106 14.8 26.9 0.00 0.00 0.00 29 1011.0
20260503220021 61 106 18.2 27.8 0.00 0.00 0.00 28 1010.9
20260503214519 62 106 13.0 24.3 0.00 0.00 0.00 30 1010.8
20260503213028 62 106 13.0 26.9 0.00 0.00 0.00 29 1010.7
20260503211520 62 106 13.0 25.2 0.00 0.00 0.00 29 1010.9
20260503210018 61 106 15.6 27.8 0.00 0.00 0.00 31 1010.7
20260503204523 61 106 13.9 25.2 0.00 0.00 0.00 30 1010.7
20260503203017 61 106 12.2 24.3 0.00 0.00 0.00 29 1010.7
20260503201526 61 106 13.9 24.3 0.00 0.00 0.00 30 1010.6
20260503200016 61 106 16.5 28.7 0.00 0.00 0.00 29 1010.5
20260503194518 62 106 10.4 20.9 0.00 0.00 0.00 31 1010.7
20260503193013 61 106 12.2 19.1 0.00 0.00 0.00 31 1010.5
20260503191515 61 106 12.2 22.6 0.00 0.00 0.00 33 1010.6
20260503190020 59 106 17.4 26.9 0.00 0.00 0.00 31 1010.4
20260503184509 59 106 13.0 22.6 0.00 0.00 0.00 33 1010.5
20260503183014 59 106 11.3 21.7 0.00 0.00 0.00 35 1010.5
20260503181519 59 106 10.4 18.2 0.00 0.00 0.00 34 1010.4
20260503180005 59 106 9.6 18.2 0.00 0.00 0.00 36 1010.5
20260503174503 58 106 7.8 19.1 0.00 0.00 0.00 36 1010.3
20260503173007 58 106 8.7 16.5 0.00 0.00 0.00 39 1010.1
20260503171502 57 106 7.8 13.0 0.00 0.00 0.00 39 1010.2
20260503170104 57 106 10.4 15.6 0.00 0.00 0.00 39 1010.2
20260503081558 56 106 7.8 14.8 0.00 0.00 0.00 49 1005.3
20260503071551 58 106 12.2 18.2 0.00 0.00 0.00 45 1005.2